Flag for Norway Weather past 2 weeks in Arendal, Norway

Now
55 °F

Cool.


Feels Like: 51 °F
Forecast: 47 / 59 °F
Wind: 13 mph from Northwest

Location: Torungen Fyr

Current Time: Jun 3, 2015 at 10:01:23 PM

Latest Report: Jun 3, 2015 at 9:00 PM


Visibility: N/A

Pressure: 29.94 "Hg

Humidity: 46%

Dew point: 35 °F

Location of ArendalLocation

Historic Weather in Arendal — Graph

°F

Arendal temperature yesterday

Maximum temperature yesterday: 50 °F (at 3:00 PM)
Minimum temperature yesterday: 48 °F (at 7:00 AM)
Average temperature yesterday: 49 °F

Past Weeks' High & Low Weather Summary

 TemperatureHumidityPressure
High62 °F (May 23, 4:00 PM)99% (May 24, 8:00 PM)30.10 "Hg (May 24, 8:00 PM)
Low42 °F (May 20, 6:00 AM)32% (May 23, 6:00 PM)29.29 "Hg (Jun 2, 1:00 PM)
Average50 °F75%29.75 "Hg
* Reported May 19 8:00 PM — Jun 3 8:00 PM, Arendal, Weather by CustomWeather, © 2015

Note: Actual official high and low records may vary slightly from our data, if they occured in-between our weather recording intervals... More about our weather records

Advertising

Arendal weather history for previous 24 hours

 ConditionsComfort  
Time TempWeatherWind HumidityBarometerVisibility
8:00 PM
Wed, Jun 3
55 °FRefreshingly cool.15 mph50%29.90 "HgN/A
7:00 PM56 °FRefreshingly cool.15 mph46%29.86 "HgN/A
6:00 PM57 °FRefreshingly cool.13 mph56%29.83 "HgN/A
5:00 PM58 °FRefreshingly cool.13 mph53%29.79 "HgN/A
4:00 PM57 °FRefreshingly cool.14 mph57%29.76 "HgN/A
3:00 PM57 °FRefreshingly cool.12 mph53%29.72 "HgN/A
2:00 PM57 °FRefreshingly cool.13 mph48%29.68 "HgN/A
1:00 PM56 °FRefreshingly cool.14 mph50%29.65 "HgN/A
12:00 PM54 °FCool.10 mph69%29.61 "HgN/A
11:00 AM52 °FCool.13 mph72%29.58 "HgN/A
10:00 AM53 °FCool.12 mph67%29.55 "HgN/A
9:00 AM51 °FCool.14 mph71%29.50 "HgN/A
8:00 AM50 °FCool.13 mph69%29.47 "HgN/A
7:00 AM50 °FCool.10 mph73%29.44 "HgN/A
6:00 AM50 °FCool.14 mph78%29.41 "HgN/A
5:00 AM50 °FCool.12 mph83%29.35 "HgN/A
4:00 AM50 °FCool.14 mph87%29.35 "HgN/A
3:00 AM50 °FCool.15 mph86%29.32 "HgN/A
2:00 AM50 °FCool.16 mph87%29.32 "HgN/A
1:00 AM50 °FCool.16 mph90%29.32 "HgN/A
12:00 AM50 °FCool.15 mph91%29.35 "HgN/A
10:00 PM
Tue, Jun 2
50 °FCool.17 mph89%29.32 "HgN/A
Weather by CustomWeather, © 2015

See weather overviewHow to use our weather pages